[[{"header":{"parameterUnit":"m.s-1","parameterCategory":1,"la1":30.2991,"la2":30.254,"lo1":-89.0895,"lo2":-89.0444,"dy":0.0017,"dx":0.0017,"nx":28,"ny":28,"refTime":"2025-12-14T09:00:00:Z","depth":0,"parameterNumber":2,"parameterNumberName":"U-component_of_WINDS"},"data":[0,0,0,0,0,0,0,0,0,0,0,0,0,0,0,0,0,0,0,0,0,0,0,0,0,0,0,0,0,0,0,0,0,0,0,0,0,0,0,0,0,0,0,0,0,0,0,0,0,0,0,0,0,0,0,0,0,0,-1.3776,-1.3776,0,-1.3781,-1.3781,-1.3781,-1.3749,-1.3748,-1.3747,-1.3746,-1.3753,-1.3754,-1.3755,0,0,0,0,0,0,0,0,0,0,0,0,0,-1.3739,-1.374,-1.3776,-1.3776,-1.3776,-1.3781,-1.3781,-1.3781,-1.3749,-1.3748,-1.3747,-1.3746,-1.3753,-1.3754,-1.3755,0,0,0,0,0,0,0,0,0,0,0,0,0,-1.3751,-1.374,-1.3776,-1.3761,-1.3759,-1.3781,-1.3781,-1.3781,-1.3749,-1.3748,-1.3747,-1.3745,-1.3752,-1.3754,-1.3755,-1.3792,0,0,-1.376,-1.376,0,0,0,0,0,0,0,0,-1.375,-1.3752,-1.3763,-1.3762,-1.376,-1.3763,-1.377,-1.3784,-1.375,-1.3753,-1.3746,-1.3745,-1.3757,-1.3758,-1.3762,-1.3792,-1.3792,-1.376,-1.3761,-1.3761,-1.3762,0,0,0,0,0,0,0,-1.3749,-1.3752,-1.3778,-1.3763,-1.3761,-1.3754,-1.3754,-1.3773,-1.3763,-1.3753,-1.3751,-1.3751,-1.3756,-1.3761,-1.3762,-1.3792,-1.376,-1.3761,-1.3762,-1.3763,-1.3851,-1.3852,0,0,0,0,0,0,-1.375,-1.3751,-1.3777,-1.3778,-1.3752,-1.3755,-1.3756,-1.3763,-1.3763,-1.3761,-1.3753,-1.375,-1.3759,-1.376,-1.3762,-1.3804,-1.3761,-1.3763,-1.3764,-1.3849,-1.3851,-1.3853,0,0,0,0,0,0,-1.375,-1.3753,-1.3777,-1.3764,-1.3766,-1.3757,-1.3766,-1.3764,-1.3769,-1.3762,-1.3761,-1.3759,-1.3758,-1.376,-1.3784,-1.3804,-1.3764,-1.3765,-1.3848,-1.385,-1.3852,-1.389,0,0,0,0,0,0,-1.3749,-1.3753,-1.3767,-1.3764,-1.3767,-1.3799,-1.3768,-1.3765,-1.3771,-1.3768,-1.3768,-1.3767,-1.3757,-1.3782,-1.3786,-1.3806,-1.3766,-1.3846,-1.3849,-1.3851,-1.3886,-1.3893,-1.3898,0,0,0,0,0,-1.3748,-1.3778,-1.3768,-1.3771,-1.3784,-1.38,-1.3802,-1.379,-1.3773,-1.3787,-1.3782,-1.3767,-1.3801,-1.3785,-1.3789,-1.3809,-1.3845,-1.3848,-1.3851,-1.3884,-1.3891,-1.3898,0,0,0,0,0,0,-1.3784,-1.3777,-1.3766,-1.3796,-1.3799,-1.3795,-1.3812,-1.3799,-1.3807,-1.3803,-1.3788,-1.3789,-1.3815,-1.3814,-1.3796,-1.3844,-1.382,-1.3824,-1.3844,-1.3851,-1.3856,-1.3856,-1.3767,0,0,0,0,0,-1.3795,-1.3808,-1.3802,-1.3829,-1.3831,-1.3821,-1.3828,-1.3818,-1.3821,-1.3822,-1.382,-1.3823,-1.3834,-1.3842,-1.3853,-1.3886,-1.3885,-1.3902,-1.3908,-1.3912,-1.3916,-1.3933,-1.394,-1.3863,-1.3863,-1.3863,0,0,-1.3819,-1.3817,-1.3827,-1.3837,-1.3838,-1.3852,-1.3823,-1.3839,-1.385,-1.3825,-1.3847,-1.3845,-1.3848,-1.3876,-1.3889,-1.3877,-1.3937,-1.3916,-1.392,-1.3922,-1.3937,-1.3945,-1.3951,-1.3865,-1.3865,-1.3865,0,0,-1.387,-1.387,-1.3892,-1.3893,-1.3895,-1.3888,-1.3893,-1.3891,-1.3888,-1.391,-1.3892,-1.3904,-1.3924,-1.3926,-1.393,-1.398,-1.3966,-1.3984,-1.4015,-1.4031,-1.4037,-1.4043,-1.406,-1.4067,-1.3988,-1.3988,-1.3988,0,-1.39,-1.392,-1.3906,-1.3923,-1.3928,-1.3904,-1.3927,-1.3929,-1.3934,-1.3938,-1.3924,-1.3948,-1.3948,-1.3977,-1.3989,-1.3993,-1.3998,-1.3984,-1.4037,-1.4043,-1.4047,-1.4064,-1.4071,-1.399,-1.399,-1.399,-1.3989,0,-1.3957,-1.3971,-1.3989,-1.3994,-1.4,-1.402,-1.4008,-1.4017,-1.4006,-1.4,-1.4023,-1.4022,-1.4031,-1.4037,-1.4027,-1.4064,-1.4056,-1.404,-1.4016,-1.4057,-1.4073,-1.4079,-1.3993,-1.3992,-1.3992,-1.3991,0,0,-1.4033,-1.4027,-1.4034,-1.4035,-1.4034,-1.4045,-1.4064,-1.4072,-1.4079,-1.4083,-1.4098,-1.4115,-1.41,-1.4104,-1.4094,-1.4109,-1.4148,-1.4091,-1.4091,-1.4102,-1.4188,-1.42,-1.4208,-1.4138,-1.4139,-1.414,-1.4188,0,-1.4082,-1.4113,-1.41,-1.4132,-1.4145,-1.4122,-1.4138,-1.4139,-1.4134,-1.4144,-1.4139,-1.4151,-1.413,-1.4132,-1.4145,-1.414,-1.4165,-1.4137,-1.4152,-1.4153,-1.4153,-1.4216,-1.423,-1.4275,-1.4194,-1.4195,-1.4196,0,-1.4145,-1.415,-1.4184,-1.4179,-1.4184,-1.4199,-1.4205,-1.4215,-1.4215,-1.421,-1.4214,-1.4201,-1.4218,-1.4193,-1.4217,-1.4198,-1.4203,-1.4202,-1.4203,-1.4205,-1.4177,-1.422,-1.4289,-1.4296,-1.4205,-1.4204,-1.4204,0,-1.4197,-1.4213,-1.4234,-1.4236,-1.4231,-1.4242,-1.4241,-1.424,-1.4245,-1.425,-1.4254,-1.4261,-1.4265,-1.4271,-1.426,-1.4243,-1.4285,-1.4259,-1.4282,-1.4282,-1.4293,-1.4292,-1.4364,-1.4295,-1.4295,-1.4295,-1.4295,0,-1.4255,-1.4276,-1.4257,-1.4271,-1.4294,-1.4278,-1.4301,-1.4297,-1.4296,-1.4308,-1.4289,-1.4301,-1.4285,-1.4295,-1.4286,-1.4307,-1.4309,-1.4306,-1.4304,-1.4308,-1.4309,-1.4312,-1.4309,-1.4297,-1.4297,-1.4296,-1.4296,0,-1.4317,-1.4305,-1.4328,-1.4321,-1.4319,-1.4337,-1.4331,-1.4343,-1.4335,-1.4351,-1.4354,-1.4343,-1.4354,-1.4343,-1.4354,-1.4347,-1.4376,-1.4368,-1.4375,-1.4374,-1.4397,-1.4395,-1.4474,-1.4483,-1.4408,-1.4409,-1.4409,0,-1.4355,-1.4371,-1.4365,-1.4371,-1.4371,-1.4382,-1.4386,-1.4371,-1.4377,-1.4377,-1.439,-1.4399,-1.4405,-1.4424,-1.4417,-1.4425,-1.4418,-1.4445,-1.4419,-1.4423,-1.4418,-1.4418,-1.4419,-1.4451,-1.4451,-1.4452,-1.4453,0,-1.4423,-1.4416,-1.4424,-1.4429,-1.4435,-1.4439,-1.4441,-1.4448,-1.4431,-1.4439,-1.4449,-1.4455,-1.4464,-1.4474,-1.4479,-1.4478,-1.4463,-1.4461,-1.4466,-1.4471,-1.4475,-1.4473,-1.439,-1.4459,-1.4459,-1.4458,-1.4458,-1.4457,-1.4475,-1.4487,-1.4485,-1.4494,-1.4493,-1.4495,-1.4506,-1.4499,-1.4508,-1.4514,-1.4504,-1.4517,-1.4516,-1.4522,-1.4522,-1.4532,-1.4521,-1.4529,-1.4531,-1.4533,-1.4537,-1.4473,-1.4533,-1.4533,-1.4533,-1.4532,-1.4532,0,-1.4542,-1.4539,-1.4547,-1.455,-1.4557,-1.454,-1.4542,-1.4549,-1.456,-1.456,-1.4566,-1.4578,-1.4587,-1.458,-1.4587,-1.4596,-1.4589,-1.4599,-1.4598,-1.4598,-1.4547,-1.4541,-1.4604,-1.4604,-1.4604,-1.4604,-1.4604,-1.4604,-1.4578,-1.4598,-1.4591,-1.461,-1.4606,-1.4618,-1.462,-1.4622,-1.4622,-1.4635,-1.4642,-1.4637,-1.4634,-1.464,-1.4648,-1.4645,-1.4649,-1.4661,-1.4656,-1.4609,-1.4602,-1.4595,-1.459,-1.4662,-1.4662,-1.4706,-1.4707,-1.4707]},{"header":{"parameterUnit":"m.s-1","parameterCategory":1,"la1":30.2991,"la2":30.254,"lo1":-89.0895,"lo2":-89.0444,"dy":0.0017,"dx":0.0017,"nx":28,"ny":28,"refTime":"2025-12-14T09:00:00:Z","depth":0,"parameterNumber":3,"parameterNumberName":"V-component_of_WINDS"},"data":[0,0,0,0,0,0,0,0,0,0,0,0,0,0,0,0,0,0,0,0,0,0,0,0,0,0,0,0,0,0,0,0,0,0,0,0,0,0,0,0,0,0,0,0,0,0,0,0,0,0,0,0,0,0,0,0,0,0,-10.101,-10.1011,0,-10.1157,-10.1159,-10.116,-10.1077,-10.1073,-10.1069,-10.1065,-10.1207,-10.1214,-10.1222,0,0,0,0,0,0,0,0,0,0,0,0,0,-10.0648,-10.0655,-10.101,-10.1012,-10.1013,-10.1157,-10.1159,-10.1161,-10.1077,-10.1072,-10.1067,-10.1063,-10.1204,-10.1213,-10.1222,0,0,0,0,0,0,0,0,0,0,0,0,0,-10.0801,-10.0657,-10.1009,-10.0989,-10.0989,-10.1157,-10.1159,-10.1161,-10.1078,-10.1072,-10.1066,-10.106,-10.1201,-10.1212,-10.1224,-10.1417,0,0,-10.1258,-10.1263,0,0,0,0,0,0,0,0,-10.0792,-10.0814,-10.099,-10.0991,-10.0991,-10.1092,-10.1083,-10.1247,-10.108,-10.1044,-10.1065,-10.1057,-10.1173,-10.1186,-10.1227,-10.1423,-10.1429,-10.1259,-10.1266,-10.1271,-10.1274,0,0,0,0,0,0,0,-10.0782,-10.0807,-10.1068,-10.0993,-10.0993,-10.097,-10.0985,-10.1114,-10.1141,-10.1047,-10.1041,-10.106,-10.1172,-10.1216,-10.123,-10.1431,-10.1259,-10.1269,-10.1276,-10.1281,-10.1794,-10.18,0,0,0,0,0,0,-10.0774,-10.0799,-10.1063,-10.1072,-10.0875,-10.0982,-10.0998,-10.1066,-10.1139,-10.1145,-10.1065,-10.1056,-10.12,-10.1217,-10.1235,-10.1466,-10.1271,-10.1282,-10.1288,-10.1787,-10.1795,-10.1803,0,0,0,0,0,0,-10.0766,-10.0798,-10.1057,-10.0934,-10.0966,-10.0995,-10.1071,-10.1072,-10.1117,-10.1154,-10.1157,-10.1107,-10.1196,-10.1218,-10.1373,-10.147,-10.1287,-10.1297,-10.1779,-10.179,-10.1799,-10.1931,0,0,0,0,0,0,-10.0756,-10.0796,-10.0871,-10.0937,-10.0973,-10.1196,-10.1077,-10.1079,-10.1138,-10.1126,-10.1193,-10.1198,-10.1193,-10.1356,-10.1384,-10.1482,-10.1306,-10.177,-10.1784,-10.1796,-10.1918,-10.1944,-10.1967,0,0,0,0,0,-10.0744,-10.09,-10.0876,-10.0908,-10.1068,-10.1201,-10.1221,-10.1215,-10.1146,-10.1221,-10.1245,-10.1196,-10.1455,-10.1373,-10.1403,-10.1507,-10.1764,-10.178,-10.1795,-10.1907,-10.1939,-10.1966,0,0,0,0,0,0,-10.0842,-10.0908,-10.0882,-10.1065,-10.1129,-10.1187,-10.1281,-10.1249,-10.1331,-10.1317,-10.1302,-10.1318,-10.1479,-10.1508,-10.1415,-10.1698,-10.1598,-10.1621,-10.1673,-10.1704,-10.1728,-10.1718,-10.1316,0,0,0,0,0,-10.0886,-10.0991,-10.1042,-10.1199,-10.1233,-10.1252,-10.131,-10.13,-10.1364,-10.1389,-10.1424,-10.1486,-10.1581,-10.1644,-10.1734,-10.1922,-10.1935,-10.2008,-10.2032,-10.2052,-10.2071,-10.2173,-10.2207,-10.1853,-10.1853,-10.1852,0,0,-10.0975,-10.1025,-10.1092,-10.122,-10.1268,-10.1376,-10.1275,-10.1392,-10.1472,-10.1406,-10.1555,-10.1583,-10.1651,-10.1823,-10.1901,-10.1852,-10.2172,-10.2072,-10.2087,-10.2096,-10.2193,-10.2226,-10.2256,-10.1863,-10.1861,-10.186,0,0,-10.1194,-10.1243,-10.138,-10.1431,-10.1507,-10.1519,-10.1552,-10.1616,-10.1633,-10.1783,-10.1737,-10.1829,-10.1993,-10.2044,-10.2091,-10.2332,-10.229,-10.2361,-10.2489,-10.2589,-10.2617,-10.2642,-10.2728,-10.2759,-10.238,-10.2381,-10.2381,0,-10.1296,-10.1459,-10.1453,-10.1576,-10.1633,-10.1582,-10.172,-10.1768,-10.1868,-10.1908,-10.1853,-10.206,-10.2101,-10.2285,-10.2345,-10.2384,-10.242,-10.2354,-10.2614,-10.2639,-10.2661,-10.2743,-10.2776,-10.2389,-10.2388,-10.2387,-10.2386,0,-10.158,-10.1694,-10.1795,-10.1897,-10.1966,-10.2095,-10.2106,-10.2176,-10.216,-10.2178,-10.2331,-10.238,-10.2479,-10.2522,-10.2506,-10.2704,-10.2672,-10.2616,-10.2516,-10.2704,-10.278,-10.2812,-10.2401,-10.2398,-10.2395,-10.2393,0,0,-10.1864,-10.1964,-10.2001,-10.2047,-10.2128,-10.2214,-10.2341,-10.2441,-10.2502,-10.2572,-10.2677,-10.2819,-10.2768,-10.2822,-10.2811,-10.2899,-10.3087,-10.2832,-10.2833,-10.2878,-10.3309,-10.3351,-10.3388,-10.306,-10.3066,-10.3071,-10.3304,0,-10.2089,-10.2314,-10.2313,-10.252,-10.2625,-10.2579,-10.2689,-10.2749,-10.2769,-10.2859,-10.2879,-10.298,-10.2905,-10.2938,-10.3023,-10.3047,-10.3174,-10.303,-10.3156,-10.3161,-10.3141,-10.3428,-10.3473,-10.369,-10.3333,-10.3339,-10.3342,0,-10.2382,-10.2467,-10.2686,-10.2753,-10.2797,-10.2896,-10.2989,-10.3076,-10.3143,-10.3151,-10.3213,-10.3189,-10.3315,-10.3212,-10.3385,-10.3288,-10.3339,-10.3359,-10.3367,-10.3378,-10.3263,-10.3447,-10.3759,-10.3792,-10.3389,-10.3386,-10.3382,0,-10.2568,-10.2736,-10.289,-10.293,-10.3012,-10.3084,-10.312,-10.3181,-10.3243,-10.3322,-10.3362,-10.3454,-10.3505,-10.3576,-10.3577,-10.3502,-10.3752,-10.3649,-10.3761,-10.3761,-10.3815,-10.3812,-10.414,-10.3849,-10.3848,-10.3847,-10.3847,0,-10.282,-10.2955,-10.2975,-10.3069,-10.3219,-10.3216,-10.3363,-10.3393,-10.3448,-10.3546,-10.351,-10.3601,-10.3597,-10.3689,-10.369,-10.3834,-10.3856,-10.3865,-10.3864,-10.3869,-10.3868,-10.3902,-10.3888,-10.3856,-10.3854,-10.3853,-10.3851,0,-10.3053,-10.3072,-10.3236,-10.3301,-10.3321,-10.3429,-10.3483,-10.3572,-10.3589,-10.3713,-10.3742,-10.3768,-10.3875,-10.3884,-10.4006,-10.4006,-10.4181,-10.4163,-10.416,-10.4157,-10.4269,-10.4258,-10.463,-10.4679,-10.4356,-10.4359,-10.4361,0,-10.3212,-10.3317,-10.3395,-10.346,-10.3502,-10.3605,-10.3669,-10.3669,-10.3736,-10.3821,-10.3899,-10.4003,-10.4087,-10.4259,-10.4287,-10.4381,-10.4365,-10.4489,-10.4378,-10.4381,-10.4367,-10.4361,-10.4372,-10.451,-10.4514,-10.4517,-10.4519,0,-10.3494,-10.3499,-10.3593,-10.3693,-10.3771,-10.3847,-10.3919,-10.3973,-10.3981,-10.4057,-10.4169,-10.4234,-10.4361,-10.4465,-10.4557,-10.4591,-10.4557,-10.4554,-10.4585,-10.4591,-10.4585,-10.4591,-10.4219,-10.4545,-10.4542,-10.4541,-10.4539,-10.4538,-10.3695,-10.3787,-10.3857,-10.3964,-10.4019,-10.4087,-10.4174,-10.4204,-10.4298,-10.4405,-10.4398,-10.452,-10.4584,-10.4705,-10.4747,-10.4841,-10.4799,-10.4844,-10.4855,-10.4866,-10.4878,-10.4571,-10.4858,-10.4857,-10.4856,-10.4855,-10.4855,0,-10.3976,-10.402,-10.4118,-10.4222,-10.4306,-10.427,-10.4347,-10.4419,-10.4529,-10.4593,-10.4678,-10.4805,-10.4906,-10.4943,-10.5041,-10.5109,-10.5096,-10.5135,-10.513,-10.5138,-10.491,-10.4874,-10.5144,-10.5144,-10.5144,-10.5144,-10.5144,-10.5144,-10.4132,-10.4284,-10.4298,-10.4477,-10.4518,-10.4642,-10.4689,-10.4752,-10.4803,-10.4949,-10.5034,-10.5059,-10.5112,-10.5214,-10.5304,-10.5312,-10.5349,-10.5396,-10.5397,-10.5183,-10.5154,-10.5126,-10.5092,-10.5404,-10.5404,-10.5617,-10.5619,-10.5621]}]]